www.pogodaiklimat.ru

Погода и климат >> Архив погоды >> Россия >> Камчатский край >> Тигиль


ПОГОДА в Тигиле

  • Прогноз погоды в Тигиле
  • Монитор погоды в Тигиле

АРХИВ ПОГОДЫ в Тигиле

Время (UTC), дата Ветер
(напр.,м/с)
 
Видим.   Явления Облачность Т
(С)
Тd
(С)
f
(%)
Тe
(С)
Тes
(С)
Комфортность P
(гПа)
Po
(гПа)
Тmin
(С)
Tmax
(С)
R
(мм)
R24
(мм)
S
(см)
03 17.03 ЮВ 2 20 км 10/0
[As trans]
-4.4 -12.8 52 -8 -8 1008.7 1006.7
06 17.03 Ю 3 20 км 10/0
[As trans]
-3.6 -12.0 52 -8 -8 1006.0 1004.0
09 17.03 ЮВ 2
{6}
20 км 10/0
[As trans]
-5.8 -12.5 59 -10 -10 1004.8 1002.7 -3.6 0.0
12 17.03 З 1 20 км 10/0
[As trans]
-6.0 -11.5 65 -8 -8 1004.8 1002.7
15 17.03 Ю 1 20 км 10/0
[As trans]
-8.4 -11.5 78 -11 -11 1004.8 1002.7
18 17.03 штиль 0 20 км 10/0
[Cs]
-15.3 -17.8 81 -15 -15 1004.8 1002.7
21 17.03 штиль 0
{6}
20 км 10/0
[As op]
-14.5 -16.9 82 -15 -14 1003.3 1001.6 -16.6 51
00 18.03 З 3 20 км 10/0
[As op]
-10.3 -15.7 65 -16 -15 1003.8 1002.1
03 18.03 З 4 20 км 6/6 600 м
[Sc]
-9.8 -16.3 59 -17 -15 1006.1 1004.0
06 18.03 СЗ 3 20 км 8/8 600 м
[Sc]
-11.8 -16.8 66 -18 -18 1007.4 1005.3
09 18.03 С 1
{8}
20 км 3/3 600 м
[Sc]
-19.7 -22.5 78 -23 -23 1007.5 1005.3 -9.3
12 18.03 СВ 1 20 км 3/0
[Ci fib]
-25.0 -28.1 75 -29 -29 1008.9 1006.7
15 18.03 штиль 0 20 км ясно -26.9 -30.4 72 -27 -27 1008.9 1006.7
18 18.03 штиль 0 20 км 4/0
[Ci]
-27.5 -31.1 71 -28 -28 1007.5 1005.3
21 18.03 штиль 0
{2}
20 км 10/5 600 м
[Sc Cs]
-25.6 -29.1 72 -26 -25 1006.1 1004.3 -28.7 51
00 19.03 СЗ 2 20 км 3/1 600 м
[Sc Ci fib]
-14.0 -19.2 65 -19 -14 1006.9 1005.2
03 19.03 СЗ 2 20 км 8/8 600 м
[Sc]
-11.8 -19.4 53 -16 -15 1008.8 1006.7
06 19.03 С 2 20 км 3/3 1000 м
[Sc]
-12.7 -19.8 55 -17 -17 1010.1 1008.0
09 19.03 С 1
{5}
20 км ясно -18.2 -21.2 77 -21 -21 1010.2 1008.0 -11.0
12 19.03 В 1 20 км ясно -25.0 -28.3 74 -29 -29 1010.2 1008.0
15 19.03 В 1 20 км ясно -28.7 -32.4 70 -33 -33 опасность
обморожения
1010.3 1008.0
18 19.03 СВ 1 20 км ясно -32.4 -36.7 65 -37 -37 опасность
обморожения
1009.0 1006.7
21 19.03 штиль 0
{3}
20 км 8/3 1000 м
[Sc Cs]
-31.5 -35.7 66 -32 -31 опасность
обморожения
1006.8 1004.9 -33.8 51
00 20.03 С 2 20 км 10/0
[As trans]
-15.8 -21.2 63 -21 -19 1005.3 1003.6
03 20.03 С 2 10 км слаб. снег 10/0
[As op]
-14.2 -19.1 66 -19 -19 1006.1 1004.0
06 20.03 С 2 10 км слаб. снег 10/10 300 м
[Frnb Ns]
-13.9 -17.2 76 -19 -19 1004.8 1002.7
09 20.03 СЗ 2
{7}
10 км слаб. снег 10/10 300 м
[Frnb Ns]
-14.1 -16.6 81 -19 -19 1006.1 1004.0 -13.8 2
12 20.03 СЗ 3 4000 м снег 10/10 300 м
[Frnb Ns]
-13.8 -16.0 83 -20 -20 1002.8 1001.1
15 20.03 З 1 10 км слаб. снег 10/10 300 м
[Frnb Ns]
-12.7 -14.7 85 -15 -15 1003.4 1001.3
18 20.03 штиль 0 10 км слаб. снег 10/10 300 м
[Frnb Ns]
-12.5 -14.3 86 -13 -13 1003.4 1001.3
21 20.03 Ю 2
{5}
10 км слаб. снег 10/10 300 м
[Frnb Ns]
-12.8 -15.1 83 -17 -17 1001.1 999.4 -14.4 8 61
00 21.03 Ю 3 10 км слаб. снег 10/10 300 м
[Frnb Ns]
-12.7 -15.5 80 -19 -19 1001.0 999.3
03 21.03 Ю 3 10 км слаб. снег 10/0
[As op]
-11.0 -13.8 80 -17 -17 1002.1 1000.0
06 21.03 Ю 2 20 км {снег} 10/0
[As trans]
-10.7 -15.3 69 -15 -15 1003.4 1001.3
09 21.03 В 2
{6}
20 км 10/0
[As trans]
-13.4 -16.1 80 -18 -18 1006.1 1004.0 -9.5 2
12 21.03 штиль 0 10 км слаб. снег 10/0
[As op]
-15.6 -17.8 83 -16 -16 1007.0 1005.3
15 21.03 ЮВ 2 10 км слаб. снег 10/10 300 м
[Frnb Ns]
-12.0 -14.0 85 -17 -17 1010.1 1008.0
18 21.03 В 1 10 км слаб. снег 10/10 300 м
[Frnb Ns]
-12.1 -14.1 85 -14 -14 1012.8 1010.7
21 21.03 ЮВ 1
{3}
10 км слаб. снег 10/10 300 м
[Frnb Ns]
-11.4 -13.9 82 -14 -14 1011.9 1010.1 -16.7 2 63
00 22.03 ЮВ 1 20 км {снег} 10/0
[As trans]
-8.6 -13.4 68 -11 -8 1012.3 1010.6
03 22.03 З 1 4000 м слаб. снег 10/10 300 м
[Frnb Ns]
-7.2 -10.9 75 -9 -9 1012.8 1010.7
06 22.03 С 2 20 км {снег} 10/0
[As trans]
-6.9 -12.2 66 -11 -11 1011.4 1009.3
09 22.03 С 1
{5}
20 км 10/0
[As trans]
-12.6 -14.9 83 -15 -15 1010.1 1008.0 -6.1 0.4
12 22.03 З 2 10 км 10/0
[As trans]
-12.7 -14.5 86 -17 -17 1007.4 1005.3
15 22.03 штиль 0 20 км 10/0
[As trans]
-12.0 -14.1 84 -12 -12 1004.8 1002.7
18 22.03 штиль 0 20 км 6/0
[Ac trans]
-15.7 -17.8 84 -16 -16 1003.4 1001.3
21 22.03 В 5
{11}
20 км позёмок 10/3 600 м
[Sc Cs]
-0.9 -7.0 63 -7 -6 999.7 998.1 -15.8 63
00 23.03 В 6-11
{14}
20 км позёмок 10/1 600 м
[Sc Cs]
+0.7 -7.5 54 -5 -3 998.0 996.4
03 23.03 В 7-13
{15}
20 км позёмок 8/3 600 м
[Sc Ci fib]
+0.8 -8.2 51 -5 -4 995.3 993.7
06 23.03 В 8-15
{17}
20 км позёмок 10/0
[As trans]
-1.1 -10.2 50 -8 -8 995.3 993.3
09 23.03 В 7-12
{17}
20 км позёмок 10/0
[As trans]
-2.1 -9.7 56 -9 -9 995.3 993.3 +1.5
12 23.03 В 5-10
{14}
20 км позёмок 10/0
[As op]
-2.2 -10.0 55 -8 -8 992.3 990.7
15 23.03 СВ 3
{11}
20 км {метель} 10/0
[As op]
-3.0 -10.8 55 -8 -8 990.9 989.2
18 23.03 З 1 20 км 10 баллов -4.6 -11.6 58 -6 -6 991.3 989.3
21 23.03 З 1
{14}
20 км 10/0
[As trans]
-5.4 -11.6 62 -7 -7 990.4 988.7 -7.6 59

 

Местоположение метеостанции Тигиль (Камчатский край, Россия): широта 57.75 долгота 158.60 высота над уровнем моря 16 м.

В архиве по умолчанию представлена погода в Тигиле за последнюю неделю. Архивные данные за месяц целиком и за предыдущие месяцы, начиная с января 2011 года, Вы можете получить, выбрав интересующий диапазон дат из раскрывающегося списка и нажав кнопку "Ввод!".


*Определитесь, кто Вы:
робот инопланетянин человек

Внимание! Время в таблицах - всемирное. Для получения местного времени необходимо прибавить поправку, которая равна 12 ч.

Смотрите также архив погоды в соседних городах и на ближайших метеорологических станциях:

Погода в Усть-Воямполке (Камчатский край, Россия) (88 км)
Погода в Усть-Хайрюзово (Камчатский край, Россия) (136 км)
Погода в Палане (Камчатский край, Россия) (166 км)
Погода в Эссо (Камчатский край, Россия) (203 км)
Погода в Козыревске (Камчатский край, Россия) (203 км)
Погода в Ключах (Камчатский край, Россия) (207 км)
Погода на Мысе Озерном (Камчатский край, Россия) (274 км)
Погода в Долиновке (Камчатский край, Россия) (294 км)
Погода в Усть-Камчатске (Камчатский край, Россия) (301 км)
Погода в Оссоре (Камчатский край, Россия) (304 км)

Пояснения к столбцам:

Ветер - указаны скорость ветра в м/с - средняя за 10 мин, порывы в срок и между сроками (в фигурных скобках) и направление, откуда дует ветер: С - северный, СВ - северо-восточный, В - восточный, ЮВ - юго-восточный, Ю - южный, ЮЗ - юго-западный, З - западный, СЗ - северо-западный.
Видимость - горизонтальная дальность видимости в метрах или километрах. При видимости от 1 до 10 км при отсутствии осадков обычно наблюдается дымка, при ухудшении видимости до 1 км и менее - туман. В сухую погоду видимость может ухудшаться дымом, пылью или мглою.
Явления - указаны атмосферные явления, наблюдавшиеся в срок или в последний час перед сроком; фигурными скобками обозначены явления, наблюдавшиеся между сроками (за 1-3 часа до срока); квадратными скобками обозначены град или гололедные отложения с указанием их диаметра в мм.
Облачность - указаны через наклонную черту общая и нижняя облачность в баллах и высота нижней границы облаков в метрах; квадратными скобками обозначены формы облаков: Ci - перистые, Cs - перисто-слоистые, Cc - перисто-кучевые, Ac - высококучевые, As - высокослоистые, Sc - слоисто-кучевые, Ns - слоисто-дождевые, Cu - кучевые, Cb - кучево-дождевые. Подробнее классификацию облаков см. в Атласе облаков (PDF).
T - Температура воздуха - температура, измеренная на высоте 2 м над землей.
Td - Температура точки росы - температура, при понижении до которой содержащийся в воздухе водяной пар достигнет насыщения.
f - Относительная влажность воздуха - влажноcть воздуха, измеренная на высоте 2 м над землей.
Te - Эффективная температура - температура, которую ощущает одетый по сезону человек в тени. Характеристика душности погоды. При расчете учитывается влияние влажности воздуха и скорости ветра на теплоощущения человека.
Tes - Эффективная температура на солнце - температура, которую ощущает человек, с поправкой на солнечный нагрев. Характеристика знойности погоды. Зависит от высоты солнца над горизонтом, облачности и скорости ветра. Ночью, в пасмурную погоду, а также при ветре 12 м/с и более поправка равна нулю.
P - Атмосферное давление - приведенное к уровню моря атмосферное давление.
Po - Атмосферное давление - измеренное на уровне метеостанции атмосферное давление.
Tmin - Минимальная температура - минимум температуры воздуха на высоте 2 м над землей.
Tmax - Максимальная температура - максимум температуры воздуха на высоте 2 м над землей.
R - Количество осадков - Количество выпавших осадков за период времени, мм. При наведении курсора мыши на число - период времени, за который выпало указанное количество осадков.
R24 - Количество осадков - Количество выпавших осадков за 24 часа, мм.
S - Снежный покров - Высота снежного покрова, см. При наведении курсора мыши на число - состояние снежного покрова и степень покрытия местности в баллах.